TimePDT,TemperatureF,Dew PointF,Humidity,Sea Level PressureIn,VisibilityMPH,Wind Direction,Wind SpeedMPH,Gust SpeedMPH,PrecipitationIn,Events,Conditions,WindDirDegrees,DateUTC
12:55 AM,66.0,35.1,32,29.88,10.0,SW,4.6,-,N/A,,Clear,220,2013-09-11 07:55:00
1:55 AM,64.0,35.1,34,29.88,10.0,South,3.5,-,N/A,,Clear,190,2013-09-11 08:55:00
2:55 AM,61.0,36.0,39,29.89,10.0,SSW,3.5,-,N/A,,Partly Cloudy,210,2013-09-11 09:55:00
3:55 AM,60.1,37.0,42,29.91,10.0,Calm,Calm,-,N/A,,Scattered Clouds,0,2013-09-11 10:55:00
4:55 AM,60.1,34.0,38,29.90,10.0,Calm,Calm,-,N/A,,Scattered Clouds,0,2013-09-11 11:55:00
5:55 AM,59.0,37.0,44,29.93,10.0,SSE,4.6,-,N/A,,Mostly Cloudy,150,2013-09-11 12:55:00
6:55 AM,59.0,36.0,42,29.95,10.0,Calm,Calm,-,N/A,,Mostly Cloudy,0,2013-09-11 13:55:00
7:55 AM,62.1,36.0,38,29.96,10.0,NNW,3.5,-,N/A,,Mostly Cloudy,330,2013-09-11 14:55:00
8:55 AM,64.9,37.9,37,29.96,10.0,Calm,Calm,-,N/A,,Mostly Cloudy,0,2013-09-11 15:55:00
9:55 AM,66.9,37.0,33,29.97,10.0,Calm,Calm,-,N/A,,Mostly Cloudy,0,2013-09-11 16:55:00
10:55 AM,75.9,35.1,23,29.95,10.0,Calm,Calm,-,N/A,,Mostly Cloudy,0,2013-09-11 17:55:00
11:55 AM,81.0,32.0,17,29.92,10.0,Calm,Calm,-,N/A,,Mostly Cloudy,0,2013-09-11 18:55:00
12:55 PM,84.9,33.1,16,29.90,10.0,NNE,5.8,-,N/A,,Mostly Cloudy,30,2013-09-11 19:55:00
1:55 PM,87.1,33.1,15,29.88,10.0,ENE,8.1,-,N/A,,Mostly Cloudy,70,2013-09-11 20:55:00
2:55 PM,87.1,30.9,13,29.88,10.0,NE,9.2,-,N/A,,Mostly Cloudy,50,2013-09-11 21:55:00
3:55 PM,84.9,30.0,14,29.87,10.0,Variable,4.6,-,N/A,,Mostly Cloudy,0,2013-09-11 22:55:00
4:55 PM,86.0,32.0,14,29.86,10.0,NNE,6.9,18.4,N/A,,Mostly Cloudy,20,2013-09-11 23:55:00
5:55 PM,84.9,30.9,14,29.87,10.0,NNE,10.4,-,N/A,,Mostly Cloudy,30,2013-09-12 00:55:00
6:55 PM,82.9,30.0,15,29.87,10.0,NE,4.6,-,N/A,,Mostly Cloudy,40,2013-09-12 01:55:00
7:55 PM,80.1,33.1,18,29.88,10.0,West,5.8,-,N/A,,Mostly Cloudy,280,2013-09-12 02:55:00
8:55 PM,78.1,39.0,25,29.90,10.0,NW,9.2,-,N/A,,Scattered Clouds,320,2013-09-12 03:55:00
9:55 PM,75.9,39.9,27,29.90,10.0,WNW,10.4,-,N/A,,Scattered Clouds,300,2013-09-12 04:55:00
10:55 PM,73.0,41.0,31,29.89,10.0,SSE,4.6,-,N/A,,Scattered Clouds,160,2013-09-12 05:55:00
11:55 PM,73.0,41.0,31,29.89,10.0,Calm,Calm,-,N/A,,Scattered Clouds,0,2013-09-12 06:55:00